| time (UTC) | temp F | wind direction | speed MPH | gust MPH | rain 1hr in | rain 24hr in | rain mn in | humidity % | barometer mb |
| 20260508224516 | 71 | 158 | 1.0 | 4.0 | 0.00 | 0.00 | 0.00 | 34 | 1012.9 |
| 20260508223016 | 72 | 293 | 1.0 | 3.0 | 0.00 | 0.00 | 0.00 | 33 | 1013.0 |
| 20260508221516 | 72 | 293 | 1.0 | 3.0 | 0.00 | 0.00 | 0.00 | 34 | 1013.2 |
| 20260508220016 | 70 | 135 | 1.0 | 5.0 | 0.00 | 0.00 | 0.00 | 36 | 1013.2 |
| 20260508214516 | 70 | 315 | 1.0 | 8.0 | 0.00 | 0.00 | 0.00 | 35 | 1013.3 |
| 20260508213036 | 70 | 293 | 1.0 | 4.0 | 0.00 | 0.00 | 0.00 | 34 | 1013.3 |
| 20260508211536 | 71 | 203 | 1.0 | 4.0 | 0.00 | 0.00 | 0.00 | 35 | 1013.3 |
| 20260508210036 | 71 | 158 | 1.0 | 3.0 | 0.00 | 0.00 | 0.00 | 35 | 1013.4 |
| 20260508204536 | 70 | 315 | 2.0 | 8.0 | 0.00 | 0.00 | 0.00 | 35 | 1013.5 |
| 20260508203015 | 70 | 315 | 1.0 | 4.0 | 0.00 | 0.00 | 0.00 | 36 | 1013.7 |
| 20260508201516 | 70 | 45 | 1.0 | 3.0 | 0.00 | 0.01 | 0.00 | 36 | 1013.7 |
| 20260508200015 | 70 | 225 | 2.0 | 4.0 | 0.00 | 0.02 | 0.00 | 36 | 1013.9 |
| 20260508194536 | 70 | 180 | 1.0 | 8.0 | 0.00 | 0.03 | 0.00 | 34 | 1014.1 |
| 20260508193015 | 70 | 315 | 2.0 | 7.0 | 0.00 | 0.03 | 0.00 | 37 | 1014.3 |
| 20260508191516 | 70 | 315 | 2.0 | 6.0 | 0.00 | 0.03 | 0.00 | 40 | 1014.7 |
| 20260508190015 | 69 | 338 | 1.0 | 4.0 | 0.00 | 0.03 | 0.00 | 35 | 1014.7 |
| 20260508184535 | 68 | 315 | 2.0 | 4.0 | 0.00 | 0.03 | 0.00 | 37 | 1014.9 |
| 20260508183015 | 68 | 270 | 2.0 | 6.0 | 0.00 | 0.03 | 0.00 | 37 | 1015.2 |
| 20260508181515 | 67 | 293 | 1.0 | 6.0 | 0.00 | 0.03 | 0.00 | 43 | 1015.3 |
| 20260508180015 | 67 | 293 | 1.0 | 6.0 | 0.00 | 0.03 | 0.00 | 37 | 1015.5 |
| 20260508174516 | 67 | 315 | 1.0 | 4.0 | 0.00 | 0.03 | 0.00 | 39 | 1015.7 |
| 20260508173035 | 67 | 113 | 2.0 | 8.0 | 0.00 | 0.03 | 0.00 | 39 | 1015.7 |
| 20260508171515 | 67 | 315 | 1.0 | 3.0 | 0.00 | 0.03 | 0.00 | 39 | 1016.0 |
| 20260508170015 | 67 | 293 | 1.0 | 6.0 | 0.00 | 0.03 | 0.00 | 39 | 1016.2 |
| 20260508164517 | 67 | 135 | 1.0 | 3.0 | 0.00 | 0.03 | 0.00 | 37 | 1016.4 |
| 20260508163017 | 67 | 45 | 1.0 | 4.0 | 0.00 | 0.03 | 0.00 | 37 | 1016.7 |
| 20260508161517 | 68 | 158 | 1.0 | 4.0 | 0.00 | 0.03 | 0.00 | 38 | 1016.9 |
| 20260508160017 | 67 | 338 | 1.0 | 4.0 | 0.00 | 0.03 | 0.00 | 39 | 1017.1 |
| 20260508154517 | 67 | 338 | 1.0 | 4.0 | 0.00 | 0.03 | 0.00 | 39 | 1017.3 |
| 20260508153017 | 66 | 45 | 1.0 | 4.0 | 0.00 | 0.03 | 0.00 | 40 | 1017.4 |
| 20260508151557 | 64 | 338 | 1.0 | 3.0 | 0.00 | 0.03 | 0.00 | 43 | 1017.5 |
| 20260508150017 | 62 | 338 | 1.0 | 4.0 | 0.00 | 0.04 | 0.00 | 43 | 1017.7 |
| 20260508144537 | 60 | 113 | 1.0 | 3.0 | 0.00 | 0.04 | 0.00 | 48 | 1017.6 |
| 20260508143017 | 58 | 315 | 1.0 | 4.0 | 0.00 | 0.04 | 0.00 | 54 | 1017.5 |
| 20260508141517 | 57 | 0 | 1.0 | 3.0 | 0.00 | 0.04 | 0.00 | 57 | 1017.6 |
| 20260508140017 | 56 | 0 | 1.0 | 3.0 | 0.00 | 0.04 | 0.00 | 61 | 1017.7 |
| 20260508134517 | 54 | 0 | 1.0 | 4.0 | 0.00 | 0.04 | 0.00 | 66 | 1017.7 |
| 20260508133017 | 52 | 0 | 1.0 | 3.0 | 0.00 | 0.04 | 0.00 | 73 | 1017.8 |
| 20260508131517 | 50 | 0.0 | 3.0 | 0.00 | 0.04 | 0.00 | 82 | 1017.7 | |
| 20260508130017 | 49 | 0.0 | 3.0 | 0.00 | 0.04 | 0.00 | 93 | 1017.6 | |
| 20260508124517 | 48 | 0.0 | 3.0 | 0.00 | 0.04 | 0.00 | 96 | 1017.7 | |
| 20260508123016 | 47 | 0.0 | 3.0 | 0.00 | 0.04 | 0.00 | 96 | 1017.6 | |
| 20260508121516 | 47 | 0.0 | 1.0 | 0.00 | 0.04 | 0.00 | 96 | 1017.4 | |
| 20260508120017 | 45 | 0.0 | 0.0 | 0.00 | 0.04 | 0.00 | 95 | 1017.0 | |
| 20260508114516 | 44 | 0.0 | 1.0 | 0.00 | 0.04 | 0.00 | 95 | 1016.8 | |
| 20260508113016 | 44 | 0.0 | 0.0 | 0.00 | 0.04 | 0.00 | 95 | 1016.7 | |
| 20260508111517 | 43 | 0.0 | 0.0 | 0.00 | 0.04 | 0.00 | 94 | 1016.4 | |
| 20260508110016 | 43 | 0.0 | 0.0 | 0.00 | 0.04 | 0.00 | 94 | 1016.1 | |
| 20260508104516 | 43 | 0.0 | 0.0 | 0.00 | 0.04 | 0.00 | 94 | 1015.9 | |
| 20260508103017 | 43 | 0.0 | 0.0 | 0.00 | 0.04 | 0.00 | 94 | 1015.7 | |
| 20260508101516 | 43 | 0.0 | 0.0 | 0.00 | 0.04 | 0.00 | 94 | 1015.6 | |
| 20260508100036 | 44 | 0.0 | 0.0 | 0.00 | 0.04 | 0.00 | 94 | 1015.4 | |
| 20260508094516 | 44 | 0.0 | 0.0 | 0.00 | 0.04 | 0.00 | 94 | 1015.2 | |
| 20260508093016 | 44 | 0.0 | 0.0 | 0.00 | 0.04 | 0.00 | 94 | 1015.1 | |
| 20260508091516 | 45 | 0.0 | 0.0 | 0.00 | 0.04 | 0.00 | 94 | 1015.0 | |
| 20260508090016 | 45 | 0.0 | 1.0 | 0.00 | 0.04 | 0.00 | 95 | 1014.8 | |
| 20260508084516 | 45 | 0.0 | 2.0 | 0.00 | 0.04 | 0.00 | 94 | 1014.7 | |
| 20260508083016 | 45 | 0.0 | 2.0 | 0.00 | 0.04 | 0.00 | 94 | 1014.6 | |
| 20260508081516 | 45 | 0.0 | 2.0 | 0.00 | 0.04 | 0.00 | 94 | 1014.3 | |
| 20260508080016 | 45 | 0.0 | 0.0 | 0.00 | 0.04 | 0.00 | 94 | 1014.3 | |
| 20260508074516 | 45 | 0.0 | 0.0 | 0.00 | 0.04 | 0.00 | 94 | 1014.0 | |
| 20260508073016 | 45 | 0.0 | 3.0 | 0.00 | 0.04 | 0.00 | 94 | 1014.0 | |
| 20260508071516 | 45 | 0.0 | 0.0 | 0.00 | 0.04 | 0.00 | 93 | 1013.7 | |
| 20260508070016 | 45 | 0.0 | 0.0 | 0.00 | 0.04 | 0.00 | 93 | 1013.7 | |
| 20260508064516 | 45 | 0.0 | 0.0 | 0.00 | 0.04 | 0.00 | 93 | 1013.8 | |
| 20260508063036 | 45 | 0.0 | 0.0 | 0.00 | 0.04 | 0.00 | 93 | 1013.6 | |
| 20260508061516 | 45 | 0.0 | 0.0 | 0.00 | 0.04 | 0.00 | 93 | 1013.4 | |
| 20260508060016 | 46 | 0.0 | 0.0 | 0.00 | 0.04 | 0.00 | 93 | 1013.2 | |
| 20260508054516 | 46 | 0.0 | 0.0 | 0.00 | 0.04 | 0.00 | 92 | 1013.1 | |
| 20260508053016 | 46 | 0.0 | 0.0 | 0.00 | 0.04 | 0.00 | 92 | 1013.1 | |
| 20260508051556 | 47 | 0.0 | 0.0 | 0.00 | 0.04 | 0.00 | 92 | 1013.1 | |
| 20260508050016 | 47 | 0.0 | 0.0 | 0.00 | 0.04 | 0.00 | 92 | 1013.1 | |
| 20260508044515 | 47 | 0.0 | 0.0 | 0.00 | 0.04 | 0.00 | 92 | 1013.0 | |
| 20260508043016 | 48 | 0.0 | 0.0 | 0.00 | 0.04 | 0.00 | 92 | 1012.9 | |
| 20260508041516 | 48 | 0.0 | 1.0 | 0.00 | 0.04 | 0.00 | 92 | 1012.8 | |
| 20260508040015 | 48 | 0.0 | 0.0 | 0.00 | 0.04 | 0.04 | 92 | 1012.6 | |
| 20260508034516 | 49 | 0.0 | 0.0 | 0.00 | 0.04 | 0.04 | 92 | 1012.5 | |
| 20260508033016 | 49 | 0.0 | 0.0 | 0.00 | 0.04 | 0.04 | 92 | 1012.6 | |
| 20260508031516 | 49 | 0.0 | 0.0 | 0.00 | 0.04 | 0.04 | 92 | 1012.6 | |
| 20260508030016 | 49 | 0.0 | 0.0 | 0.00 | 0.04 | 0.04 | 92 | 1012.4 | |
| 20260508024516 | 49 | 0.0 | 0.0 | 0.00 | 0.04 | 0.04 | 92 | 1012.4 | |
| 20260508023016 | 49 | 0.0 | 0.0 | 0.00 | 0.04 | 0.04 | 91 | 1012.3 | |
| 20260508021517 | 49 | 0.0 | 0.0 | 0.00 | 0.04 | 0.04 | 91 | 1012.4 | |
| 20260508020016 | 50 | 0.0 | 0.0 | 0.00 | 0.04 | 0.04 | 90 | 1012.2 | |
| 20260508014516 | 50 | 0.0 | 0.0 | 0.00 | 0.04 | 0.04 | 90 | 1011.9 | |
| 20260508013016 | 51 | 0.0 | 0.0 | 0.00 | 0.04 | 0.04 | 90 | 1012.1 | |
| 20260508011516 | 51 | 0.0 | 0.0 | 0.00 | 0.04 | 0.04 | 90 | 1012.1 | |
| 20260508010016 | 52 | 0.0 | 0.0 | 0.00 | 0.04 | 0.04 | 90 | 1011.8 | |
| 20260508004516 | 52 | 0.0 | 0.0 | 0.00 | 0.04 | 0.04 | 89 | 1011.7 | |
| 20260508003016 | 52 | 0.0 | 0.0 | 0.00 | 0.04 | 0.04 | 89 | 1011.6 | |
| 20260508001516 | 53 | 0.0 | 0.0 | 0.00 | 0.04 | 0.04 | 88 | 1011.5 | |
| 20260508000016 | 53 | 0.0 | 1.0 | 0.00 | 0.04 | 0.04 | 88 | 1011.1 | |
| 20260507234516 | 53 | 0.0 | 1.0 | 0.00 | 0.04 | 0.04 | 87 | 1011.1 | |
| 20260507233016 | 53 | 0.0 | 1.0 | 0.00 | 0.04 | 0.04 | 86 | 1010.9 | |
| 20260507231516 | 54 | 0.0 | 2.0 | 0.00 | 0.04 | 0.04 | 86 | 1010.6 | |
| 20260507230016 | 54 | 0.0 | 1.0 | 0.00 | 0.04 | 0.04 | 87 | 1010.7 |